DW1065 Weather Reports


time (UTC)temp
F
wind
direction
speed
knots
gust
knots
rain 1hr
in
rain 24hr
in
rain mn
in
humidity
%
barometer
mb
20260502214505 48 158 0.0 1.7 1.40 3.37 3.34 91 1004.4
20260502214005 48 161 0.9 1.7 1.40 3.37 3.32 91 1004.4
20260502213505 49 158 0.0 1.7 1.40 3.37 3.31 91 1004.4
20260502213006 49 161 0.0 0.9 1.40 3.37 3.30 91 1004.5
20260502212504 49 147 0.0 0.9 1.40 3.37 3.29 91 1004.5
20260502212004 49 144 0.0 0.9 1.42 3.38 3.28 91 1004.4
20260502211506 49 160 0.0 0.9 1.40 3.38 3.27 91 1004.5
20260502210505 49 156 0.0 1.7 1.40 3.37 3.24 91 1004.4
20260502210006 49 156 0.0 1.7 1.40 3.37 3.23 91 1004.3
20260502205505 49 162 0.0 0.9 1.40 3.37 3.22 91 1004.2
20260502205005 49 154 0.0 2.6 1.40 3.37 3.21 91 1004.3
20260502204504 49 163 0.0 2.6 1.42 3.38 3.20 91 1004.3
20260502203505 49 157 0.9 4.3 1.40 3.37 3.17 91 1004.3
20260502203005 49 155 0.9 4.3 1.40 3.37 3.16 90 1004.3
20260502202505 50 176 0.9 4.3 1.40 3.37 3.15 90 1004.5
20260502202005 50 175 1.7 4.3 1.40 3.37 3.14 90 1004.5
20260502201505 50 168 0.9 4.3 1.42 3.38 3.13 90 1004.5
20260502201005 50 183 0.9 4.3 1.42 3.38 3.11 90 1004.6
20260502200504 50 196 1.7 4.3 1.40 3.38 3.10 90 1004.7
20260502200005 50 203 0.9 5.2 1.40 3.37 3.09 90 1004.7
20260502195505 50 201 1.7 5.2 1.40 3.37 3.08 89 1004.7
20260502195005 50 207 1.7 6.1 1.40 3.37 3.07 89 1004.7
20260502194505 50 202 1.7 6.1 1.40 3.37 3.05 88 1004.8
20260502194005 50 181 2.6 6.1 1.42 3.38 3.04 88 1004.8
20260502193505 51 164 2.6 7.0 1.42 3.38 3.03 88 1004.8
20260502193005 51 158 0.9 7.0 1.41 3.38 3.02 88 1004.8
20260502192505 51 196 1.7 5.2 1.41 3.37 3.01 87 1004.8
20260502192004 51 178 1.7 5.2 1.41 3.37 3.00 87 1004.8
20260502191505 51 156 2.6 5.2 1.41 3.37 2.98 87 1004.9
20260502191005 51 203 1.7 4.3 1.41 3.37 2.97 87 1004.8
20260502190505 51 212 1.7 4.3 1.43 3.38 2.96 87 1004.8
20260502190005 51 209 0.9 2.6 1.43 3.38 2.95 87 1004.8
20260502185506 51 201 0.9 2.6 1.41 3.37 2.94 87 1004.8
20260502185005 51 221 0.9 2.6 1.41 3.37 2.93 88 1004.6
20260502184505 52 244 0.0 1.7 1.41 3.37 2.91 88 1004.5
20260502183505 52 251 0.0 0.9 1.41 3.37 2.89 89 1004.5
20260502182506 52 268 0.0 0.9 1.42 3.38 2.87 89 1004.4
20260502182005 52 246 0.0 0.9 1.40 3.37 2.86 89 1004.5
20260502181504 52 244 0.0 0.9 1.40 3.37 2.84 88 1004.6
20260502181005 52 245 0.0 0.9 1.40 3.37 2.83 88 1004.7
20260502180504 52 266 0.0 0.9 1.40 3.37 2.82 88 1004.6
20260502170504 53 269 0.0 0.9 1.44 3.37 2.68 84 1004.9
20260502164004 54 261 0.0 1.7 1.44 3.38 2.62 81 1005.0
20260502163504 55 270 0.0 1.7 1.44 3.37 2.61 79 1005.2
20260502163004 55 253 0.9 1.7 1.44 3.37 2.60 77 1005.2
20260502162505 56 232 0.0 1.7 1.43 3.37 2.58 77 1005.2
20260502162005 57 233 0.9 2.6 1.42 3.37 2.57 74 1005.1
20260502161504 57 232 0.9 2.6 1.43 3.37 2.56 72 1005.1
20260502161004 57 254 0.9 2.6 1.42 3.37 2.55 70 1005.2
20260502160505 58 215 1.7 5.2 1.40 3.37 2.54 68 1005.4
20260502152005 61 194 4.3 7.0 1.40 3.37 2.43 58 1005.0
20260502151505 61 201 4.3 7.8 1.40 3.37 2.42 56 1005.0
20260502150505 62 204 4.3 10.4 1.42 3.37 2.40 56 1005.1
20260502130504 66 205 4.3 10.4 1.42 3.37 2.11 48 1005.8
20260502123504 65 232 1.7 7.8 1.40 3.36 2.04 44 1006.0
20260502123005 65 219 2.6 7.8 1.40 3.36 2.03 44 1006.0
20260502122506 65 224 2.6 7.8 1.40 3.36 2.02 43 1006.1
20260502122004 65 216 1.7 7.8 1.40 3.36 2.01 42 1006.0
20260502121505 65 278 1.7 7.8 1.42 3.36 2.00 42 1006.0
20260502120504 65 210 4.3 7.8 1.40 3.36 1.97 40 1006.3
20260502115505 65 232 5.2 10.4 1.40 3.36 1.95 40 1006.3
20260502115005 64 250 1.7 6.1 1.40 3.36 1.94 43 1006.4
20260502114504 64 250 1.7 5.2 1.40 3.36 1.93 42 1006.5
20260502114005 64 242 1.7 7.8 1.42 3.36 1.92 45 1006.6
20260502113504 64 225 2.6 7.8 1.40 3.36 1.90 43 1006.6
20260502113005 65 229 2.6 10.4 1.40 3.36 1.89 44 1006.5
20260502112005 66 251 1.7 4.3 1.40 3.36 1.87 45 1006.8
20260502111505 66 232 1.7 11.3 1.40 3.36 1.86 45 1006.8
20260502110005 66 209 3.5 11.3 1.42 3.36 1.82 46 1007.0
20260502105504 66 218 2.6 7.8 1.40 3.36 1.81 46 1007.0
20260502105005 66 208 2.6 8.7 1.40 3.36 1.80 46 1007.0
20260502104504 66 210 3.5 8.7 1.40 3.36 1.79 46 1007.0
20260502103505 66 250 2.6 10.4 1.42 3.36 1.76 47 1007.1
20260502103005 66 235 2.6 12.2 1.42 3.36 1.75 46 1007.2
20260502101504 66 257 2.6 11.3 1.40 3.36 1.72 47 1007.1
20260502101006 66 211 3.5 11.3 1.40 3.36 1.70 48 1007.1
20260502100504 66 277 1.7 7.8 1.40 3.36 1.69 49 1007.2
20260502091505 64 198 4.3 10.4 1.40 3.36 1.58 49 1007.6
20260502091006 64 221 4.3 7.8 1.40 3.36 1.56 50 1007.6
20260502090504 64 222 2.6 7.8 1.40 3.36 1.55 50 1007.7
20260502071504 58 205 2.6 7.8 1.40 3.36 1.29 56 1008.9
20260502071004 57 205 2.6 7.0 1.40 3.36 1.28 58 1009.0
20260502070504 57 197 2.6 7.0 1.42 3.36 1.27 58 1009.0
20260502070005 56 201 2.6 7.0 1.40 3.36 1.26 59 1009.0
20260502065505 56 188 2.6 6.1 1.40 3.36 1.25 60 1009.0
20260502065004 55 223 1.7 6.1 1.40 3.36 1.24 60 1009.1
20260502064505 55 212 3.5 7.0 1.40 3.36 1.22 61 1009.1
20260502064006 55 227 3.5 7.8 1.40 3.36 1.21 61 1009.1
20260502063005 54 203 3.5 7.8 1.42 3.36 1.19 63 1009.2
20260502062506 53 201 2.6 7.8 1.40 3.36 1.18 64 1009.2
20260502062004 53 228 2.6 8.7 1.40 3.36 1.17 64 1009.2
20260502061504 53 215 4.3 10.4 1.40 3.36 1.15 64 1009.3
20260502061004 52 224 3.5 10.4 1.40 3.36 1.14 65 1009.3
20260502060504 52 206 3.5 10.4 1.40 3.36 1.13 66 1009.4
20260502060005 52 210 4.3 10.4 1.42 3.37 1.12 66 1009.3
20260502055005 51 211 2.6 8.7 1.40 3.36 1.10 67 1009.4
20260502054504 51 196 3.5 7.0 1.40 3.36 1.08 68 1009.5
20260502054004 50 207 2.6 8.7 1.40 3.36 1.07 68 1009.6
20260502053504 50 203 5.2 10.4 1.40 3.36 1.06 68 1009.6
20260502053005 50 201 4.3 10.4 1.40 3.36 1.05 68 1009.5
20260502052506 49 236 2.6 10.4 1.42 3.36 1.04 68 1009.6
20260502051504 48 210 2.6 10.4 1.40 3.36 1.01 69 1009.6
20260502051006 48 195 4.3 10.4 1.40 3.36 1.00 70 1009.6
20260502050504 47 197 4.3 10.4 1.40 3.36 9.94 72 1009.7
20260502045504 47 203 2.6 7.8 1.40 3.36 9.70 73 1009.7
20260502044504 47 198 2.6 7.0 1.40 3.36 9.48 73 1009.8
20260502044006 47 209 2.6 5.2 1.40 3.36 9.36 73 1009.9
20260502043504 47 202 2.6 7.0 1.40 3.36 9.24 73 1009.8
20260502043004 47 192 2.6 7.0 1.40 3.36 9.12 72 1009.8
20260502042505 47 185 2.6 6.1 1.40 3.36 9.00 72 1009.8
20260502042005 47 202 2.6 6.1 1.42 3.36 8.90 72 1009.8
20260502041004 47 208 1.7 5.2 1.40 3.36 8.66 71 1009.8
20260502040004 47 202 2.6 5.2 1.40 3.36 8.42 70 1010.0
20260502035504 47 208 1.7 5.2 1.40 3.36 8.30 70 1010.1
20260502034504 47 201 2.6 7.0 1.42 3.36 8.08 69 1010.3
20260502034004 47 214 2.6 7.0 1.42 3.36 7.96 69 1010.4
20260502033504 48 202 2.6 7.0 1.40 3.36 7.84 69 1010.4
20260502033005 48 198 3.5 7.0 1.40 3.36 7.72 69 1010.5
20260502032504 48 194 2.6 7.0 1.40 3.36 7.60 69 1010.6
20260502032006 48 203 2.6 7.8 1.40 3.36 7.48 69 1010.5
20260502031504 48 197 2.6 7.8 1.40 3.36 7.36 69 1010.5
20260502031004 48 213 4.3 7.8 1.42 3.36 7.26 69 1010.6
20260502030505 48 218 4.3 7.8 1.42 3.36 7.14 69 1010.6
20260502030004 48 210 4.3 7.8 1.40 3.36 7.02 70 1010.7
20260502025006 47 198 4.3 7.8 1.40 3.36 6.78 71 1011.0
20260502024504 47 203 3.5 8.7 1.40 3.36 6.66 72 1011.0
20260502024004 47 207 3.5 8.7 1.40 3.36 6.54 72 1011.0
20260502023504 47 235 3.5 7.8 1.42 3.36 6.44 73 1011.0
20260502023005 46 192 2.6 7.0 1.42 3.36 6.32 74 1011.1
20260502022505 46 204 1.7 7.0 1.40 3.36 6.20 75 1011.2
20260502022005 46 211 1.7 7.0 1.40 3.36 6.08 75 1011.1
20260502021504 46 203 0.9 6.1 1.40 3.36 5.96 76 1011.3
20260502021005 46 193 1.7 4.3 1.40 3.36 5.84 76 1011.3
20260502020505 46 199 1.7 4.3 1.40 3.36 5.72 76 1011.4
20260502020004 46 202 0.9 5.2 1.42 3.36 5.62 77 1011.4
20260502015504 46 207 0.9 5.2 1.40 3.36 5.50 77 1011.4
20260502015005 46 187 0.9 5.2 1.40 3.36 5.38 77 1011.5
20260502014505 46 178 0.9 4.3 1.40 3.36 5.26 78 1011.6
20260502014005 46 175 0.9 4.3 1.40 3.36 5.14 78 1011.7
20260502013506 46 154 1.7 4.3 1.40 3.36 5.02 77 1011.8
20260502013004 46 196 0.9 2.6 1.40 3.36 4.90 76 1011.8
20260502012004 46 217 0.0 2.6 1.40 3.36 4.68 76 1011.9
20260502011504 46 187 0.9 2.6 1.40 3.36 4.56 76 1011.9
20260502011004 46 192 1.7 6.1 1.40 3.36 4.44 76 1011.9
20260502010505 46 214 1.7 6.1 1.40 3.36 4.32 76 1011.9
20260502010004 47 201 0.9 2.6 1.40 3.36 4.20 76 1012.0
20260502005505 47 157 0.0 2.6 1.42 3.36 4.10 77 1012.0
20260502005004 47 159 0.9 4.3 1.42 3.36 3.98 77 1012.1
20260502004504 47 159 0.9 4.3 1.40 3.36 3.86 77 1012.1
20260502004004 47 164 1.7 4.3 1.40 3.36 3.74 77 1012.2
20260502003503 47 166 1.7 5.2 1.40 3.36 3.62 76 1012.3
20260502003005 47 204 1.7 5.2 1.40 3.36 3.50 77 1012.2
20260502002504 47 177 1.7 5.2 1.40 3.36 3.38 76 1012.3
20260502001504 47 180 0.9 7.0 1.42 3.36 3.16 76 1012.3
20260502001004 47 170 1.7 7.0 1.40 3.36 3.04 77 1012.3
20260502000504 47 179 0.9 2.6 1.40 3.36 2.92 77 1012.4
20260502000004 47 167 0.9 2.6 1.40 3.36 2.80 77 1012.4
20260501235504 47 166 0.9 2.6 1.40 3.36 2.68 77 1012.4
20260501235005 47 215 0.9 2.6 1.40 3.36 2.56 77 1012.4
20260501234505 47 187 1.7 2.6 1.42 3.36 2.46 77 1012.4
20260501234005 47 196 0.9 2.6 1.42 3.36 2.34 77 1012.5
20260501233504 48 211 1.7 2.6 1.40 3.36 2.22 77 1012.6
20260501233004 48 200 1.7 4.3 1.40 3.36 2.10 76 1012.6
20260501232005 48 200 1.7 5.2 1.40 3.36 1.86 76 1012.7
20260501231504 48 206 1.7 5.2 1.40 3.36 1.74 76 1012.8
20260501231005 48 193 0.9 6.1 1.42 3.36 1.64 76 1012.7
20260501230005 48 192 2.6 7.0 1.40 3.36 1.40 75 1012.7
20260501225504 48 207 1.7 7.0 1.38 3.36 1.28 75 1012.7
20260501225004 49 179 2.6 5.2 1.38 3.36 1.16 75 1012.8
20260501224505 49 207 1.7 6.1 1.38 3.36 1.04 74 1012.9
20260501224005 49 201 1.7 6.1 1.38 3.36 0.92 74 1012.9
20260501223505 49 179 2.6 6.1 1.40 3.36 0.82 73 1012.9
20260501223004 49 180 2.6 7.0 1.40 3.36 0.70 73 1012.9
20260501222504 49 172 3.5 7.8 1.40 3.36 0.58 72 1012.9
20260501222005 49 174 3.5 8.7 1.38 3.36 0.46 72 1012.9
20260501221004 50 166 4.3 8.7 1.38 3.36 0.22 71 1013.0
20260501220505 50 170 4.3 7.8 1.38 3.36 0.10 70 1013.0
20260501215504 50 159 2.6 8.7 1.40 3.37 3.36 68 1013.0
20260501215005 51 176 2.6 8.7 1.40 3.37 3.34 68 1013.0